Showing default

KUIPER-00230, 68579

Orbit data source: Space-Track

KUIPER-00230, 68579 is a payload satellite owned by Kuiper Systems (US) in LEO that was launched on Sat, 04 Apr 2026 UTC via an ATLAS V 551 launch vehicle from the Air Force Eastern Test Range (AFETR). Payload-class satellites include a variety of spacecraft equipped with specific instruments for various scientific and technological missions. These include communications satellites like Starlink; space stations such as the ISS; scientific satellites like the Hubble; Earth observation satellites from companies like Planet Labs, Umbra, and HawkEye 360; GPS; miniature CubeSats for education and research; and military/defense satellites.

Loading next visibility...
Identifier
68579, 2026-072G
Orbit
LEO
Country
Flag of USUS
Related business
Manufacturer
Kuiper Systems
Mission
Operational spacecraft
Bus & Motor
KUIPER, Unknown motor
Mass
~490 kg wet, ~490 kg dry
Launch date (UTC)
2026-04-04 (2 months ago)
Launch vehicle
ATLAS V 551
Launch site
Air Force Eastern Test Range (AFETR)
Object type
Payload
Rocket body
Debris
Shape & HBR
Unknown shape, 3.4 m
Radar Cross Section
Large (>1 m²)

Expand to show TLE details & history
Last TLE update: 22 hours ago

TLE from 22 hours ago
0 KUIPER-00230
1 68579U 26072G   26149.73190857  .00039012  00000-0  10521-2 0  9990
2 68579  51.8766 265.9939 0002092 310.0383  50.0420 15.37417685  8549
Epoch: 2026-05-29T17:33Z
TLE epoch observation values (Epoch: 2026-05-29T17:33:56.900Z)
Latitude
-0.00002°
Longitude
115.24873°
Altitude
453.594 km
Speed
7.642 km/s
True Right ascension
17h 43m 58s
True Declination
0° 00' 00"
Sunlit
Object was in full shadow at epoch
Visualization orbit readout
Latitude
Unknown
Longitude
Unknown
Altitude
Unknown
Speed
Unknown
Apparent Right ascension
Unknown
Apparent Declination
Unknown
Sunlit
N/A
Visualization observer readout
Local Sidereal Time
01:03:17
Azimuth
Unknown
Elevation
Unknown
Doppler factor
Unknown
Orbital elements
Apogee altitude
455.644 km
Perigee altitude
452.786 km
Semi-major axis
6,832.352 km
Eccentricity
0.00021
Inclination
51.8766°
RAAN
265.9939°
Arg. of periapsis
310.0383°
True anomaly
50.06038°
Mean anomaly
50.042°
Eccentric anomaly
50.05119°
Mean motion
3.84315 °/min
Orbital period
93.67 mins
BSTAR
0.0010521
Loading maneuver chart data...
Computing Atmospheric mass density...
Loading historical data...
Loading historical data...
Loading historical data...
Loading historical data...
Loading historical data...
Loading historical data...
Loading historical data...

Documentation

Showing up to 5 results
|